Voltar ao catálogo

CICERO-2

AtivoCiênciaSSO
NORAD 42848·PAYLOAD·🇺🇸 United States
Este nome de satélite ainda não foi confirmado por fontes oficiais.

Lançado Jul 14, 2017 de Baikonur Cosmodrome

Loading…

Próximas Passagens (próximas 24 horas)

TLE

AtualizadoSource: Space-Track

Época: Sep 13, 2026, 09:43 UTC

1 42848U 17042Z   26256.40543652  .00003172  00000-0  20981-3 0  9996
2 42848  97.4040  56.1874 0006682 112.1361 248.0578 15.08036758500530

Acompanhe CICERO-2 em tempo real com AllMySat

Download on the App Store